Location: Unspecified
(0.0000°N, 0.0000°E)
Time: 23:52:19
(UTC+00:00)

Vanguard 1 - Pass Details

Date: 02 October 2020
Orbit: 649 x 3833 km, 34.3° (Epoch: 28 October)

Event Time Altitude Azimuth Distance (km) Brightness Sun altitude
Rises 09:18:06 0° 239° (WSW) 5,981 13.8 52.1°
Reaches altitude 10° 09:23:55 10° 221° (SW) 5,549 13.8 53.5°
Maximum altitude 09:35:01 18° 182° (S) 5,671 14.2 56.3°
Drops below altitude 10° 09:48:44 10° 145° (SE) 6,905 14.8 59.7°
Sets 09:57:48 0° 128° (SE) 7,948 15.0 61.9°
